Weather History for KHOB - March, 2013

Change the Weather History Date:

Sunday, March 10, 2013

  Actual Average Record
Temperature  
Mean Temperature 41 °F -  
Max Temperature 50 °F 64 °F 84 °F (1954)
Min Temperature 32 °F 36 °F 21 °F (1998)
Degree Days  
Heating Degree Days 24    
Moisture  
Dew Point 17 °F    
Average Humidity 40    
Maximum Humidity 52    
Minimum Humidity 22    
Precipitation  
Precipitation 0.00 in - - ()
Sea Level Pressure  
Sea Level Pressure 30.10 in    
Wind  
Wind Speed 12 mph (NW)    
Max Wind Speed 23 mph    
Max Gust Speed 30 mph    
Visibility 10 miles    
Events      
Averages and records for this station are not official NWS values.
T = Trace of Precipitation, MM = Missing Value Source: NWS Daily Summary

Daily Weather History Graph

Daily Weather History Graph

Search for Another Location

Airport or City:

Trip Planner

Search our weather history database for the weather conditions in past years. The results will help you decide how hot, cold, wet, or windy it might be!

Date:

Astronomy

Mar. 10, 2013 Rise Set
Actual Time 7:09 AM MDT 6:57 PM MDT
Civil Twilight 6:44 AM MDT 7:21 PM MDT
Nautical Twilight 6:16 AM MDT 7:50 PM MDT
Astronomical Twilight 5:47 AM MDT 8:19 PM MDT
Moon 6:08 AM MDT (3/10) 6:07 PM MDT (3/10)
Length of Visible Light 12h 37m
Length of Day
11h 48m
Waning Crescent, 1% of the Moon is Illuminated
Mar 10
Waning Crescent
Mar 11
New
Mar 19
First Quarter
Mar 27
Full
Apr 2
Last Quarter

Hourly Weather History & Observations

Time (MDT) Temp. Windchill Dew Point Humidity Pressure Visibility Wind Dir Wind Speed Gust Speed Precip Events Conditions
12:15 AM 41.0 °F 33.9 °F 21.2 °F 45% 29.96 in 10.0 mi NNW 12.7 mph - N/A   Clear
12:35 AM 39.2 °F 32.5 °F 19.4 °F 45% 29.98 in 10.0 mi NNW 10.4 mph - N/A   Clear
12:55 AM 39.2 °F 31.2 °F 19.4 °F 45% 29.98 in 10.0 mi NNW 13.8 mph - N/A   Clear
1:15 AM 39.2 °F 29.8 °F 19.4 °F 45% 29.98 in 10.0 mi NNW 18.4 mph 24.2 mph N/A   Clear
1:35 AM 39.2 °F 30.5 °F 21.2 °F 49% 29.98 in 10.0 mi NNW 16.1 mph - N/A   Clear
1:55 AM 39.2 °F 30.8 °F 21.2 °F 49% 29.98 in 10.0 mi NNW 15.0 mph - N/A   Clear
3:15 AM 37.4 °F 29.8 °F 21.2 °F 52% 29.98 in 10.0 mi NNW 11.5 mph - N/A   Clear
3:35 AM 37.4 °F 29.3 °F 21.2 °F 52% 29.99 in 10.0 mi NNW 12.7 mph 18.4 mph N/A   Clear
3:55 AM 37.4 °F 29.8 °F 21.2 °F 52% 30.00 in 10.0 mi North 11.5 mph - N/A   Clear
4:15 AM 37.4 °F 28.9 °F 21.2 °F 52% 30.00 in 10.0 mi NNW 13.8 mph - N/A   Clear
4:35 AM 37.4 °F 27.2 °F 21.2 °F 52% 30.01 in 10.0 mi NNW 19.6 mph 24.2 mph N/A   Clear
4:55 AM 37.4 °F 27.8 °F 21.2 °F 52% 30.02 in 10.0 mi NNW 17.3 mph - N/A   Clear
7:50 AM 35.6 °F 26.2 °F 19.4 °F 52% 30.10 in 10.0 mi North 15.0 mph 19.6 mph N/A   Clear
8:50 AM 37.4 °F 26.4 °F 14.0 °F 38% 30.11 in 10.0 mi North 23.0 mph 29.9 mph N/A   Clear
9:50 AM 41.0 °F 31.1 °F 10.4 °F 29% 30.13 in 10.0 mi North 23.0 mph 28.8 mph N/A   Clear
10:50 AM 44.6 °F 37.4 °F 10.4 °F 25% 30.14 in 10.0 mi NNE 16.1 mph 28.8 mph N/A   Clear
11:50 AM 46.4 °F 39.5 °F 12.2 °F 25% 30.14 in 10.0 mi NNE 17.3 mph 24.2 mph N/A   Scattered Clouds
12:50 PM 48.2 °F - 10.4 °F 22% 30.12 in 10.0 mi North 15.0 mph 24.2 mph N/A   Scattered Clouds
1:50 PM 48.2 °F - 12.2 °F 24% 30.11 in 10.0 mi North 17.3 mph 26.5 mph N/A   Overcast
2:50 PM 48.2 °F - 12.2 °F 24% 30.10 in 10.0 mi NW 6.9 mph 20.7 mph N/A   Mostly Cloudy
3:50 PM 50.0 °F - 14.0 °F 24% 30.10 in 10.0 mi WNW 11.5 mph 19.6 mph N/A   Partly Cloudy
4:50 PM 48.2 °F - 15.8 °F 27% 30.09 in 10.0 mi NW 19.6 mph 27.6 mph N/A   Scattered Clouds
5:50 PM 48.2 °F - 15.8 °F 27% 30.10 in 10.0 mi NW 13.8 mph 18.4 mph N/A   Partly Cloudy
6:15 PM 48.2 °F - 15.8 °F 27% 30.11 in 10.0 mi NW 13.8 mph - N/A   Clear
6:35 PM 46.4 °F 40.4 °F 15.8 °F 29% 30.12 in 10.0 mi WNW 13.8 mph - N/A   Clear
6:55 PM 44.6 °F 40.7 °F 15.8 °F 31% 30.13 in 10.0 mi WNW 6.9 mph - N/A   Clear
7:15 PM 44.6 °F - 15.8 °F 31% 30.13 in 10.0 mi Calm Calm - N/A   Clear
7:35 PM 41.0 °F - 15.8 °F 36% 30.14 in 10.0 mi Calm Calm - N/A   Clear
7:55 PM 39.2 °F - 15.8 °F 39% 30.14 in 10.0 mi Calm Calm - N/A   Clear
8:15 PM 39.2 °F - 15.8 °F 39% 30.15 in 10.0 mi Calm Calm - N/A   Clear
8:35 PM 37.4 °F 32.1 °F 15.8 °F 41% 30.16 in 10.0 mi West 6.9 mph - N/A   Clear
8:55 PM 37.4 °F - 15.8 °F 41% 30.16 in 10.0 mi Calm Calm - N/A   Clear
9:15 PM 35.6 °F 30.7 °F 15.8 °F 44% 30.17 in 10.0 mi West 5.8 mph - N/A   Clear
9:35 PM 35.6 °F 30.7 °F 15.8 °F 44% 30.18 in 10.0 mi West 5.8 mph - N/A   Clear
9:55 PM 35.6 °F - 15.8 °F 44% 30.18 in 10.0 mi Calm Calm - N/A   Clear
10:15 PM 35.6 °F - 15.8 °F 44% 30.17 in 10.0 mi Calm Calm - N/A   Clear
10:35 PM 35.6 °F - 15.8 °F 44% 30.17 in 10.0 mi Calm Calm - N/A   Clear
10:55 PM 33.8 °F 27.0 °F 15.8 °F 48% 30.17 in 10.0 mi West 8.1 mph - N/A   Clear
11:15 PM 33.8 °F - 15.8 °F 48% 30.17 in 10.0 mi Calm Calm - N/A   Clear
11:35 PM 32.0 °F - 15.8 °F 51% 30.16 in 10.0 mi Calm Calm - N/A   Clear
11:55 PM 32.0 °F - 15.8 °F 51% 30.16 in 10.0 mi Calm Calm - N/A   Clear
12:15 AM 32.0 °F 24.8 °F 15.8 °F 51% 30.16 in 10.0 mi West 8.1 mph - N/A   Clear
12:35 AM 32.0 °F - 15.8 °F 51% 30.16 in 10.0 mi Calm Calm - N/A   Clear